1504548000.87,5712,17.19,73642.5,-3.51,-18.07,-15.81,0,*65
1504548002.13,5713,17.19,73646.0,-3.53,-17.93,-17.03,0,*6C
1504548003.38,5714,17.19,73652.3,-3.55,-17.49,-17.63,0,*6C
1504548004.6,5715,17.19,73650.3,-3.55,-18.11,-18.99,0,*65
1504548005.84,5716,17.19,73650.5,-3.53,-19.31,-20.89,0,*69
1504548007.04,5717,17.19,73654.0,-3.53,-20.05,-21.43,0,*62
1504548008.24,5718,17.19,73646.5,-3.57,-20.73,-20.73,0,*6A
1504548009.5,5719,17.19,73646.3,-3.55,-21.03,-20.73,0,*6F
1504548010.73,5720,17.19,73650.3,-3.57,-21.53,-22.11,0,*64
1504548011.95,5721,17.19,73648.8,-3.55,-22.07,-23.39,0,*6E
1504548013.15,5722,17.19,73618.8,-3.57,-20.93,-22.41,0,*6E
1504548014.37,5723,17.19,73624.8,-3.57,-21.03,-22.41,0,*67
1504548015.64,5724,17.19,73622.5,-3.57,-21.53,-22.47,0,*63
1504548016.85,5725,17.19,73620.5,-3.57,-22.27,-22.27,0,*64
1504548018.11,5726,17.19,73614.5,-3.57,-22.31,-21.23,0,*67
1504548019.34,5727,17.19,73594.8,-3.59,-22.11,-20.09,0,*63
1504548020.6,5728,17.19,73614.5,-3.59,-21.87,-19.37,0,*67
1504548021.87,5729,17.19,73624.5,-3.59,-21.83,-18.59,0,*6B
1504548023.12,5730,17.19,73628.0,-3.59,-21.03,-18.17,0,*61
1504548024.37,5731,17.19,73640.8,-3.59,-20.73,-17.97,0,*61
1504548025.6,5732,17.19,73646.8,-3.57,-20.09,-17.97,0,*61
1504548026.83,5733,17.19,73634.5,-3.57,-20.53,-19.17,0,*69
1504548028.03,5734,17.19,73642.5,-3.57,-19.99,-19.03,0,*67
1504548029.31,5735,17.19,73640.8,-3.59,-20.15,-19.31,0,*67
1504548030.53,5736,17.19,73630.0,-3.59,-20.09,-19.37,0,*6F
1504548031.75,5737,17.19,73622.8,-3.57,-20.15,-19.71,0,*6F
1504548033.01,5738,17.19,73636.3,-3.59,-19.99,-19.85,0,*6B
1504548034.26,5739,17.19,73626.0,-3.57,-21.33,-21.83,0,*62
1504548035.5,5740,17.19,73626.8,-3.57,-20.89,-20.79,0,*68
1504548036.69,5741,17.19,73632.5,-3.61,-21.43,-21.43,0,*63
1504548037.93,5742,17.19,73626.3,-3.57,-21.73,-21.83,0,*6A
1504548039.19,5743,17.19,73616.3,-3.57,-21.87,-22.31,0,*6A
1504548040.47,5744,17.19,73610.3,-3.59,-21.83,-22.47,0,*66
1504548041.68,5745,17.19,73606.5,-3.61,-21.39,-22.57,0,*6C
1504548042.94,5746,17.19,73622.3,-3.61,-21.67,-23.19,0,*6F
1504548044.17,5747,17.19,73612.3,-3.61,-21.77,-23.03,0,*64
1504548045.4,5748,17.19,73598.0,-3.61,-22.37,-22.73,0,*6A
1504548046.66,5749,17.19,73600.3,-3.59,-23.09,-21.87,0,*64
1504548047.94,5750,17.19,73602.8,-3.59,-23.23,-21.33,0,*6B
1504548049.14,5751,17.19,73590.0,-3.61,-22.63,-19.99,0,*6F
1504548050.39,5752,17.19,73590.0,-3.61,-20.79,-18.93,0,*6E
1504548051.63,5753,17.19,73598.5,-3.61,-18.49,-17.59,0,*6E
1504548052.88,5754,17.19,73620.8,-3.61,-16.13,-16.69,0,*6A
1504548054.09,5755,17.19,73638.5,-3.61,-15.63,-16.55,0,*60
1504548055.32,5756,17.19,73620.0,-3.59,-18.69,-19.51,0,*64
1504548056.56,5757,17.19,73626.8,-3.59,-20.43,-20.39,0,*62
1504548057.76,5758,17.19,73614.0,-3.61,-20.29,-20.05,0,*65
1504548058.98,5759,17.19,73622.0,-3.57,-18.59,-18.25,0,*64
1504548060.24,5760,17.19,73616.5,-3.59,-18.89,-17.87,0,*6A
1504548061.49,5761,17.19,73632.3,-3.59,-17.35,-16.51,0,*69
1504548062.73,5762,17.19,73644.5,-3.59,-17.63,-16.45,0,*6C
1504548063.97,5763,17.19,73646.0,-3.59,-18.41,-16.75,0,*61
1504548065.19,5764,17.19,73636.5,-3.55,-20.25,-17.49,0,*6D
1504548066.46,5765,17.19,73632.0,-3.55,-20.35,-17.21,0,*63
1504548067.71,5766,17.19,73644.3,-3.55,-20.19,-17.35,0,*6B
1504548068.96,5767,17.19,73646.3,-3.55,-19.75,-17.63,0,*69
1504548070.18,5768,17.19,73644.3,-3.57,-20.09,-17.55,0,*60
1504548071.44,5769,17.19,73648.0,-3.57,-19.65,-17.63,0,*64
1504548072.7,5770,17.19,73646.3,-3.57,-21.83,-19.31,0,*66
1504548073.9,5771,17.19,73612.0,-3.57,-20.93,-19.51,0,*61
1504548075.15,5772,17.19,73622.3,-3.57,-20.79,-19.31,0,*60
1504548076.38,5773,17.19,73610.3,-3.57,-20.89,-19.81,0,*65
1504548077.64,5774,17.19,73620.3,-3.59,-20.59,-19.65,0,*6B
1504548078.9,5775,17.19,73618.0,-3.59,-20.53,-19.95,0,*6F
1504548080.13,5776,17.19,73622.5,-3.61,-19.85,-19.75,0,*68
1504548081.39,5777,17.19,73626.0,-3.55,-19.27,-19.75,0,*66
1504548082.62,5778,17.19,73624.8,-3.59,-19.37,-20.29,0,*67
1504548083.88,5779,17.19,73626.3,-3.59,-19.07,-20.15,0,*6A
1504548085.13,5780,17.19,73622.3,-3.59,-18.59,-20.25,0,*65
1504548086.37,5781,17.19,73614.3,-3.55,-19.17,-20.63,0,*61
1504548087.62,5782,17.19,73622.0,-3.57,-20.15,-21.03,0,*6F
1504548088.83,5783,17.19,73620.5,-3.57,-20.73,-20.73,0,*68
1504548090.09,5784,17.19,73628.5,-3.59,-21.23,-20.43,0,*66
1504548091.37,5785,17.19,73624.8,-3.59,-21.67,-19.85,0,*67
1504548092.58,5786,17.19,73626.3,-3.57,-22.57,-19.71,0,*61
1504548093.81,5787,17.19,73624.5,-3.57,-23.23,-19.99,0,*64
1504548095.04,5788,17.19,73624.0,-3.57,-22.97,-18.93,0,*6E
1504548096.31,5789,17.19,73626.3,-3.59,-22.77,-18.59,0,*69
1504548097.57,5790,17.19,73628.3,-3.59,-22.77,-18.73,0,*69
1504548098.8,5791,17.19,73626.8,-3.59,-22.83,-18.73,0,*63
1504548100.03,5792,17.19,73630.0,-3.59,-21.63,-18.17,0,*6F
1504548101.31,5793,17.19,73628.0,-3.59,-21.87,-18.55,0,*62
1504548102.56,5794,17.19,73628.0,-3.61,-21.23,-18.35,0,*66
1504548103.8,5795,17.19,73630.3,-3.61,-21.27,-18.73,0,*61
1504548105.07,5796,17.19,73626.8,-3.55,-20.99,-19.31,0,*66
1504548106.35,5797,17.19,73626.0,-3.59,-20.53,-19.65,0,*6C
1504548107.56,5798,17.19,73620.5,-3.57,-20.39,-20.29,0,*63
1504548108.78,5799,17.19,73620.3,-3.59,-21.09,-21.73,0,*60
1504548110.03,5800,17.19,73618.3,-3.61,-20.83,-21.57,0,*61
1504548111.28,5801,17.19,73620.0,-3.61,-20.79,-21.53,0,*61
1504548112.48,5802,17.19,73620.5,-3.61,-21.43,-22.37,0,*6B
1504548113.72,5803,17.19,73600.5,-3.61,-21.39,-22.47,0,*60
1504548114.93,5804,17.19,73584.0,-3.61,-21.39,-22.63,0,*61
1504548116.16,5805,17.19,73594.8,-3.61,-20.99,-22.63,0,*6B
1504548117.39,5806,17.19,73632.5,-3.61,-20.19,-22.63,0,*60
1504548118.62,5807,17.19,73614.0,-3.61,-21.87,-24.31,0,*66
1504548119.87,5808,17.19,73626.5,-3.61,-21.57,-24.15,0,*62
1504548121.1,5809,17.19,73624.3,-3.61,-22.77,-24.61,0,*61
1504548122.33,5810,17.19,73632.3,-3.59,-23.75,-24.57,0,*64
1504548123.56,5811,17.19,73632.8,-3.61,-24.61,-23.95,0,*65
1504548124.82,5812,17.19,73632.3,-3.61,-24.25,-24.11,0,*6D
1504548126.05,5813,17.19,73628.3,-3.61,-23.49,-24.61,0,*66
1504548127.28,5814,17.19,73632.3,-3.59,-25.39,-26.65,0,*6D
1504548128.51,5815,17.19,73638.0,-3.65,-26.93,-26.45,0,*62
1504548129.74,5816,17.19,73634.8,-3.65,-27.77,-27.19,0,*62
1504548130.99,5817,17.19,73624.8,-3.61,-28.47,-26.93,0,*68
1504548132.22,5818,17.19,73628.8,-3.65,-26.97,-24.51,0,*6C
1504548133.48,5819,17.19,73630.8,-3.67,-27.03,-25.03,0,*65
1504548134.71,5820,17.19,73624.3,-3.65,-26.65,-23.99,0,*69
1504548135.95,5821,17.13,73604.5,-3.65,-26.17,-23.09,0,*64
1504548137.18,5822,17.19,73600.8,-3.65,-25.03,-22.53,0,*6F
1504548138.42,5823,17.19,73622.3,-3.65,-24.83,-21.93,0,*68
1504548139.65,5824,17.19,73638.8,-3.65,-24.15,-21.17,0,*6C
1504548140.88,5825,17.19,73624.0,-3.65,-24.77,-21.57,0,*6D
1504548142.14,5826,17.19,73620.8,-3.67,-23.99,-21.43,0,*6E
1504548143.42,5827,17.19,73626.0,-3.67,-23.03,-21.03,0,*68
1504548144.65,5828,17.19,73634.0,-3.61,-22.47,-21.09,0,*6A
1504548145.86,5829,17.19,73634.3,-3.65,-22.37,-21.13,0,*63
1504548147.09,5830,17.19,73642.3,-3.65,-21.83,-21.43,0,*62
1504548148.34,5831,17.19,73624.8,-3.65,-22.21,-21.97,0,*61
1504548149.57,5832,17.19,73640.3,-3.65,-21.83,-22.07,0,*63
1504548150.78,5833,17.19,73642.8,-3.65,-21.93,-22.11,0,*64
1504548152.03,5834,17.19,73642.3,-3.65,-23.49,-23.69,0,*68
1504548153.27,5835,17.19,73644.5,-3.65,-24.15,-25.13,0,*6C
1504548154.5,5836,17.19,73652.5,-3.65,-24.15,-24.47,0,*6F
1504548155.72,5837,17.19,73646.8,-3.65,-25.19,-25.45,0,*60
1504548156.96,5838,17.19,73630.3,-3.65,-26.45,-26.33,0,*67
1504548158.17,5839,17.19,73624.5,-3.65,-26.03,-25.19,0,*6F
1504548159.46,5840,17.19,73616.0,-3.67,-26.97,-26.17,0,*63
1504548160.69,5841,17.19,73600.0,-3.65,-26.13,-24.31,0,*6A
1504548161.94,5842,17.19,73594.3,-3.65,-25.29,-23.23,0,*67
1504548163.15,5843,17.19,73592.0,-3.65,-20.69,-21.17,0,*62
1504548164.38,5844,17.19,73596.8,-3.65,-21.27,-21.73,0,*6C
1504548165.61,5845,17.19,73608.5,-3.65,-21.03,-21.93,0,*65
1504548166.84,5846,17.19,73614.3,-3.65,-21.03,-22.27,0,*6A
1504548168.04,5847,17.19,73618.0,-3.65,-20.09,-21.93,0,*6C
1504548169.28,5848,17.19,73612.5,-3.67,-19.47,-21.93,0,*61
1504548170.51,5849,17.19,73610.0,-3.65,-20.53,-22.11,0,*64
1504548171.73,5850,17.19,73608.3,-3.65,-20.19,-21.73,0,*65
1504548172.98,5851,17.19,73620.0,-3.61,-20.35,-21.87,0,*65
1504548174.23,5852,17.19,73628.0,-3.61,-19.37,-20.49,0,*6D
1504548175.47,5853,17.19,73634.8,-3.61,-19.27,-20.63,0,*65
1504548176.71,5854,17.19,73648.3,-3.61,-21.27,-20.59,0,*60
1504548177.94,5855,17.19,73652.8,-3.61,-22.21,-21.93,0,*63
1504548179.18,5856,17.19,73644.0,-3.61,-23.95,-21.93,0,*6E
1504548180.38,5857,17.19,73650.5,-3.61,-24.61,-22.03,0,*69
1504548181.59,5858,17.19,73652.5,-3.61,-26.39,-23.75,0,*69
1504548182.84,5859,17.19,73658.5,-3.59,-25.23,-22.47,0,*6B
1504548184.07,5860,17.19,73660.3,-3.61,-25.45,-23.13,0,*6A
1504548185.29,5861,17.19,73654.5,-3.61,-25.23,-23.33,0,*69
1504548186.58,5862,17.13,73630.0,-3.67,-24.83,-23.85,0,*6A
1504548187.83,5863,17.19,73618.0,-3.65,-23.99,-23.65,0,*6B
1504548189.04,5864,17.19,73604.0,-3.65,-23.89,-23.89,0,*6F
1504548190.27,5865,17.19,73614.8,-3.67,-24.35,-24.35,0,*6C
1504548191.5,5866,17.19,73616.8,-3.65,-24.87,-24.51,0,*66
1504548192.77,5867,17.19,73616.5,-3.67,-24.87,-23.69,0,*69
1504548194.03,5868,17.19,73600.3,-3.67,-23.19,-21.73,0,*6F
1504548195.26,5869,17.19,73590.0,-3.67,-22.53,-22.37,0,*62
1504548196.55,5870,17.19,73600.8,-3.67,-22.21,-22.77,0,*6B
1504548197.77,5871,17.19,73626.5,-3.67,-20.05,-21.17,0,*6B
1504548199.0,5872,17.19,73632.8,-3.65,-19.81,-22.07,0,*6E
1504548200.25,5873,17.19,73632.3,-3.67,-20.53,-22.87,0,*60
1504548201.51,5874,17.19,73634.0,-3.67,-20.79,-22.67,0,*61
1504548202.71,5875,17.19,73656.0,-3.65,-20.25,-22.37,0,*6E
1504548203.97,5876,17.19,73660.5,-3.65,-20.83,-23.23,0,*65
1504548205.23,5877,17.19,73652.8,-3.65,-23.65,-25.75,0,*6A
1504548206.47,5878,17.13,73638.3,-3.65,-24.31,-25.45,0,*60
1504548207.69,5879,17.13,73636.8,-3.65,-24.97,-26.17,0,*69
1504548208.94,5880,17.19,73634.3,-3.65,-25.45,-26.17,0,*61
1504548210.2,5881,17.19,73640.3,-3.67,-25.13,-25.45,0,*65
1504548211.46,5882,17.19,73638.8,-3.67,-25.29,-25.49,0,*63
1504548212.67,5883,17.19,73636.3,-3.65,-26.45,-27.67,0,*67
1504548213.88,5884,17.19,73642.5,-3.65,-27.03,-27.29,0,*69
1504548215.14,5885,17.19,73636.3,-3.67,-26.49,-26.33,0,*6F
1504548216.4,5886,17.19,73640.5,-3.67,-27.35,-27.03,0,*64
1504548217.66,5887,17.19,73638.3,-3.67,-26.45,-25.03,0,*61
1504548218.91,5888,17.19,73638.0,-3.67,-25.61,-23.99,0,*6E
1504548220.17,5889,17.19,73650.8,-3.67,-24.77,-23.23,0,*68
1504548221.4,5890,17.19,73646.8,-3.65,-25.81,-24.77,0,*6C
1504548222.69,5891,17.19,73632.5,-3.67,-26.81,-26.17,0,*68
1504548223.97,5892,17.19,73626.8,-3.67,-25.45,-24.87,0,*6B
1504548225.18,5893,17.19,73616.5,-3.65,-24.61,-24.77,0,*60
1504548226.39,5894,17.19,73606.5,-3.65,-24.47,-25.19,0,*6A
1504548227.64,5895,17.19,73618.0,-3.67,-23.23,-24.51,0,*61
1504548228.88,5896,17.19,73632.3,-3.67,-22.27,-24.47,0,*60
1504548230.08,5897,17.19,73636.5,-3.65,-21.47,-24.31,0,*67
1504548231.31,5898,17.19,73630.0,-3.67,-22.11,-24.31,0,*6A
1504548232.55,5899,17.19,73636.8,-3.65,-22.37,-24.21,0,*6C
1504548233.83,5900,17.19,73644.8,-3.67,-22.73,-24.83,0,*67
1504548235.06,5901,17.19,73644.5,-3.65,-24.61,-25.75,0,*69
1504548236.3,5902,17.19,73646.0,-3.65,-25.35,-26.33,0,*6B
1504548237.56,5903,17.19,73648.0,-3.67,-25.65,-26.33,0,*6D
1504548238.76,5904,17.19,73644.8,-3.65,-25.65,-26.45,0,*69
1504548240.0,5905,17.19,73644.5,-3.65,-26.65,-26.93,0,*60
1504548241.23,5906,17.19,73648.3,-3.65,-27.03,-28.47,0,*65
1504548242.44,5907,17.19,73638.8,-3.65,-27.29,-27.29,0,*6B
1504548243.67,5908,17.19,73636.8,-3.65,-27.03,-26.93,0,*6C
1504548244.92,5909,17.19,73650.8,-3.67,-28.53,-29.13,0,*62
1504548246.21,5910,17.19,73648.5,-3.67,-28.79,-29.89,0,*61
1504548247.44,5911,17.19,73628.5,-3.67,-28.15,-28.53,0,*6C
1504548248.68,5912,17.19,73628.5,-3.67,-28.97,-29.83,0,*69
1504548249.94,5913,17.19,73636.5,-3.65,-27.61,-27.83,0,*62
1504548251.22,5914,17.19,73626.3,-3.67,-27.19,-27.61,0,*64
1504548252.47,5915,17.19,73622.8,-3.67,-27.13,-27.35,0,*6E
1504548253.74,5916,17.19,73630.3,-3.67,-26.33,-26.45,0,*68
1504548254.97,5917,17.19,73634.0,-3.65,-24.67,-25.35,0,*6C
1504548256.21,5918,17.19,73632.3,-3.69,-24.51,-25.03,0,*6F
1504548257.48,5919,17.19,73630.0,-3.67,-23.65,-23.99,0,*65
1504548258.76,5920,17.19,73620.5,-3.67,-23.19,-23.53,0,*62
1504548260.02,5921,17.19,73650.0,-3.65,-21.27,-22.73,0,*6D
1504548261.28,5922,17.19,73658.0,-3.67,-19.61,-23.09,0,*69
1504548262.52,5923,17.19,73644.8,-3.67,-18.69,-24.47,0,*6C
1504548263.8,5924,17.19,73626.3,-3.67,-20.99,-25.81,0,*64
1504548265.06,5925,17.19,73628.8,-3.67,-24.15,-25.87,0,*63
1504548266.34,5926,17.19,73632.3,-3.67,-23.23,-25.03,0,*6E
1504548267.59,5927,17.13,73632.5,-3.65,-21.97,-23.49,0,*68
1504548268.85,5928,17.19,73640.0,-3.67,-19.75,-20.79,0,*62
1504548270.11,5929,17.19,73650.0,-3.65,-19.31,-23.19,0,*64
1504548271.34,5930,17.19,73636.3,-3.65,-23.09,-24.15,0,*65
1504548272.54,5931,17.19,73640.3,-3.65,-23.39,-24.97,0,*6D
1504548273.77,5932,17.13,73632.8,-3.61,-23.99,-24.77,0,*6E
1504548274.99,5933,17.19,73640.0,-3.61,-22.63,-23.29,0,*67
1504548276.25,5934,17.13,73650.5,-3.65,-21.27,-22.77,0,*6D
1504548277.47,5935,17.19,73642.0,-3.61,-25.45,-26.23,0,*6D
1504548278.73,5936,17.19,73640.8,-3.61,-23.33,-24.41,0,*6F
1504548279.95,5937,17.19,73640.3,-3.61,-22.73,-24.31,0,*6C
1504548281.19,5938,17.13,73638.0,-3.59,-23.59,-25.23,0,*63
1504548282.42,5939,17.19,73640.8,-3.61,-23.53,-24.77,0,*63
1504548283.63,5940,17.19,73634.3,-3.61,-23.13,-25.13,0,*6A
1504548284.89,5941,17.19,73630.3,-3.61,-23.29,-24.71,0,*67
1504548286.14,5942,17.19,73626.8,-3.59,-22.31,-23.75,0,*64
1504548287.4,5943,17.19,73620.3,-3.61,-22.21,-23.85,0,*60
1504548288.61,5944,17.19,73616.8,-3.61,-22.37,-24.61,0,*6D
1504548289.83,5945,17.13,73614.5,-3.61,-22.37,-24.15,0,*6F
1504548291.04,5946,17.19,73618.3,-3.61,-19.99,-22.97,0,*6C
1504548292.27,5947,17.19,73636.3,-3.61,-19.41,-22.03,0,*65
1504548293.53,5948,17.19,73642.8,-3.61,-17.93,-22.17,0,*6E
1504548294.81,5949,17.19,73632.8,-3.59,-21.03,-23.23,0,*6E
1504548296.07,5950,17.19,73652.3,-3.61,-22.31,-24.25,0,*6E
1504548297.28,5951,17.13,73624.5,-3.61,-24.77,-26.07,0,*69
1504548298.49,5952,17.19,73626.5,-3.61,-24.77,-25.13,0,*6C
1504548299.74,5953,17.13,73620.8,-3.61,-23.99,-24.11,0,*69
1504548300.97,5954,17.13,73644.5,-3.61,-23.65,-23.79,0,*64
1504548302.18,5955,17.19,73646.8,-3.61,-24.77,-25.09,0,*60
1504548303.44,5956,17.19,73634.3,-3.59,-24.41,-24.51,0,*61
1504548304.69,5957,17.19,73634.0,-3.61,-23.85,-24.41,0,*65
1504548305.93,5958,17.19,73628.5,-3.61,-24.71,-25.23,0,*63
1504548307.21,5959,17.19,73624.0,-3.59,-24.67,-24.71,0,*68
1504548308.42,5960,17.19,73630.8,-3.57,-24.57,-24.77,0,*69
1504548309.63,5961,17.13,73632.5,-3.61,-24.57,-25.23,0,*6D
1504548310.88,5962,17.19,73638.5,-3.59,-24.87,-25.23,0,*68
1504548312.16,5963,17.19,73650.8,-3.59,-24.41,-24.87,0,*6C
1504548313.45,5964,17.19,73650.3,-3.59,-24.21,-24.83,0,*69
1504548314.74,5965,17.19,73652.8,-3.59,-24.25,-24.87,0,*68
1504548315.94,5966,17.19,73650.8,-3.57,-24.57,-25.35,0,*68
1504548317.17,5967,17.13,73648.0,-3.61,-23.65,-24.57,0,*6F
1504548318.43,5968,17.19,73652.8,-3.59,-24.25,-24.93,0,*60
1504548319.7,5969,17.19,73656.8,-3.59,-24.41,-25.09,0,*61
1504548320.95,5970,17.19,73652.3,-3.59,-24.87,-25.23,0,*6B
1504548322.21,5971,17.13,73652.8,-3.59,-24.87,-25.49,0,*66
1504548323.41,5972,17.13,73652.3,-3.57,-25.19,-25.91,0,*68
1504548324.66,5973,17.19,73652.0,-3.59,-25.19,-25.75,0,*6D
1504548325.89,5974,17.19,73652.5,-3.59,-25.19,-26.03,0,*68
1504548327.13,5975,17.13,73650.8,-3.59,-24.35,-25.65,0,*65
1504548328.39,5976,17.19,73654.5,-3.61,-23.85,-25.29,0,*69
1504548329.62,5977,17.19,73654.0,-3.61,-23.99,-24.97,0,*61
1504548330.87,5978,17.19,73654.3,-3.59,-23.95,-24.93,0,*6D
1504548332.11,5979,17.13,73654.5,-3.59,-24.51,-25.09,0,*61
1504548333.31,5980,17.19,73654.0,-3.61,-24.93,-25.39,0,*61
1504548334.55,5981,17.13,73652.8,-3.59,-24.77,-25.49,0,*66
1504548335.79,5982,17.19,73660.8,-3.59,-26.23,-27.19,0,*61
1504548337.07,5983,17.19,73652.8,-3.59,-27.83,-28.43,0,*6B
1504548338.32,5984,17.13,73652.5,-3.59,-27.55,-27.83,0,*64
1504548339.58,5985,17.13,73658.5,-3.61,-28.91,-28.59,0,*61
1504548340.86,5986,17.13,73646.8,-3.59,-27.83,-27.39,0,*6C
1504548342.09,5987,17.19,73650.3,-3.61,-26.45,-26.29,0,*6D
1504548343.32,5988,17.13,73640.8,-3.59,-26.49,-26.07,0,*69
1504548344.58,5989,17.13,73646.8,-3.59,-26.49,-25.55,0,*6C
1504548345.84,5990,17.19,73644.8,-3.59,-26.17,-25.35,0,*69
1504548347.04,5991,17.13,73628.5,-3.61,-25.23,-25.39,0,*6B
1504548348.28,5992,17.13,73626.3,-3.61,-25.13,-24.71,0,*66
1504548349.51,5993,17.13,73614.3,-3.61,-22.47,-22.07,0,*66
1504548350.72,5994,17.19,73606.8,-3.61,-21.13,-21.93,0,*6D
1504548351.98,5995,17.13,73614.0,-3.61,-19.57,-21.53,0,*6B
1504548353.19,5996,17.13,73628.3,-3.61,-20.43,-22.07,0,*65
1504548354.44,5997,17.13,73630.5,-3.61,-21.27,-23.29,0,*6A
1504548355.67,5998,17.19,73630.3,-3.61,-21.53,-22.67,0,*6D
1504548356.91,5999,17.13,73638.3,-3.61,-20.93,-22.17,0,*66
1504548358.14,6000,17.19,73644.0,-3.59,-19.95,-22.11,0,*6D
1504548359.37,6001,17.19,73628.5,-3.59,-22.93,-23.75,0,*61
1504548360.65,6002,17.19,73636.8,-3.59,-21.87,-21.53,0,*62
1504548361.91,6003,17.19,73648.5,-3.59,-22.67,-23.23,0,*6B
1504548363.13,6004,17.19,73656.0,-3.59,-22.83,-23.89,0,*66
1504548364.36,6005,17.13,73646.0,-3.57,-25.35,-25.03,0,*67
1504548365.59,6006,17.13,73654.5,-3.57,-25.23,-25.03,0,*63
1504548366.82,6007,17.19,73650.8,-3.57,-25.55,-24.93,0,*6B
1504548368.08,6008,17.13,73650.8,-3.57,-26.55,-25.75,0,*6E
1504548369.31,6009,17.13,73652.3,-3.57,-26.55,-25.65,0,*6E
1504548370.55,6010,17.13,73626.8,-3.57,-26.93,-26.07,0,*6B
1504548371.77,6011,17.13,73616.5,-3.59,-25.65,-25.19,0,*62
1504548373.02,6012,17.13,73628.3,-3.59,-23.29,-23.89,0,*60
1504548374.28,6013,17.13,73618.5,-3.59,-22.17,-23.89,0,*6D
1504548375.49,6014,17.13,73610.8,-3.57,-23.43,-24.57,0,*60
1504548376.74,6015,17.13,73628.8,-3.59,-22.47,-23.89,0,*6E
1504548377.99,6016,17.13,73630.0,-3.61,-22.21,-23.99,0,*67
1504548379.25,6017,17.19,73636.5,-3.59,-22.17,-24.05,0,*6A
1504548380.47,6018,17.19,73646.3,-3.59,-22.11,-23.79,0,*6F
1504548381.72,6019,17.13,73644.5,-3.59,-22.11,-24.11,0,*67
1504548382.97,6020,17.19,73654.5,-3.59,-21.83,-24.05,0,*60
1504548384.21,6021,17.13,73648.0,-3.61,-23.75,-25.45,0,*64
1504548385.46,6022,17.13,73638.3,-3.59,-23.53,-24.57,0,*6A
1504548386.69,6023,17.13,73630.8,-3.59,-23.09,-23.79,0,*6F
1504548387.96,6024,17.13,73632.5,-3.59,-22.77,-23.09,0,*67
1504548389.21,6025,17.13,73626.8,-3.59,-23.53,-23.89,0,*69
1504548390.44,6026,17.13,73622.0,-3.59,-23.59,-24.05,0,*63
1504548391.69,6027,17.13,73624.5,-3.59,-22.93,-24.11,0,*60
1504548392.94,6028,17.13,73630.3,-3.59,-22.57,-23.69,0,*6F
1504548394.19,6029,17.13,73654.5,-3.59,-22.63,-23.29,0,*6D
1504548395.45,6030,17.13,73636.8,-3.59,-24.21,-25.35,0,*6E
1504548396.69,6031,17.13,73642.8,-3.59,-24.51,-24.77,0,*6F
1504548397.9,6032,17.13,73644.5,-3.57,-23.75,-24.51,0,*67
1504548399.16,6033,17.19,73652.5,-3.57,-23.95,-24.21,0,*6F
1504548400.39,6034,17.13,73652.0,-3.57,-24.11,-24.51,0,*64
1504548401.64,6035,17.13,73666.0,-3.57,-23.23,-23.69,0,*6F
1504548402.92,6036,17.13,73664.8,-3.55,-23.99,-26.29,0,*6E
1504548404.13,6037,17.13,73660.0,-3.57,-25.19,-25.49,0,*66
1504548405.36,6038,17.13,73644.3,-3.57,-25.91,-25.71,0,*62
1504548406.57,6039,17.13,73644.8,-3.57,-24.77,-25.35,0,*6A
1504548407.85,6040,17.13,73646.8,-3.55,-24.83,-25.03,0,*68
1504548409.1,6041,17.13,73658.5,-3.55,-25.13,-24.87,0,*6C
1504548410.37,6042,17.19,73666.5,-3.55,-25.29,-25.29,0,*63
1504548411.62,6043,17.13,73660.5,-3.55,-26.45,-26.77,0,*63
1504548412.88,6044,17.13,73656.3,-3.57,-28.09,-28.25,0,*69
1504548414.16,6045,17.13,73652.0,-3.55,-28.63,-28.47,0,*62
1504548415.39,6046,17.13,73656.8,-3.57,-27.55,-27.83,0,*6E
1504548416.64,6047,17.19,73664.8,-3.57,-27.35,-27.83,0,*69
1504548417.9,6048,17.13,73652.0,-3.59,-26.81,-26.87,0,*63
1504548419.15,6049,17.13,73624.3,-3.59,-27.03,-26.71,0,*60
1504548420.43,6050,17.13,73624.5,-3.59,-25.71,-24.11,0,*6B
1504548421.69,6051,17.13,73612.3,-3.61,-24.25,-23.19,0,*6E
1504548422.93,6052,17.13,73606.5,-3.59,-23.09,-22.63,0,*63
1504548424.16,6053,17.13,73630.5,-3.61,-21.73,-22.31,0,*61
1504548425.39,6054,17.13,73644.5,-3.61,-20.63,-22.73,0,*60
1504548426.64,6055,17.13,73634.5,-3.59,-21.03,-23.39,0,*62
1504548427.87,6056,17.13,73626.3,-3.61,-21.73,-22.21,0,*65
1504548429.15,6057,17.13,73638.8,-3.59,-20.79,-21.53,0,*62
1504548430.41,6058,17.13,73644.8,-3.59,-18.93,-21.17,0,*62
1504548431.64,6059,17.13,73656.8,-3.61,-18.99,-20.99,0,*65
1504548432.87,6060,17.13,73662.8,-3.59,-19.47,-20.93,0,*6C
1504548434.1,6061,17.13,73668.5,-3.59,-20.25,-21.09,0,*61
1504548435.38,6062,17.13,73654.0,-3.59,-24.25,-26.93,0,*62
1504548436.62,6063,17.13,73648.3,-3.59,-24.57,-25.09,0,*66
1504548437.88,6064,17.13,73636.5,-3.59,-24.25,-22.67,0,*6B
1504548439.13,6065,17.13,73628.3,-3.59,-22.67,-19.85,0,*6E
1504548440.37,6066,17.13,73630.5,-3.59,-20.59,-18.11,0,*6E
1504548441.63,6067,17.13,73628.5,-3.59,-18.41,-17.07,0,*65
1504548442.89,6068,17.13,73642.3,-3.59,-16.45,-16.31,0,*64
1504548444.11,6069,17.13,73646.0,-3.57,-15.85,-16.37,0,*62
1504548445.34,6070,17.13,73624.5,-3.57,-15.35,-16.45,0,*64
1504548446.56,6071,17.13,73612.0,-3.57,-15.35,-16.45,0,*65
1504548447.78,6072,17.19,73620.8,-3.57,-15.29,-17.35,0,*6D
1504548449.04,6073,17.13,73642.5,-3.57,-14.83,-17.21,0,*68
1504548450.28,6074,17.13,73656.8,-3.57,-16.09,-19.95,0,*6E
1504548451.53,6075,17.13,73628.3,-3.55,-18.41,-20.53,0,*6F
1504548452.77,6076,17.13,73632.8,-3.55,-19.13,-20.69,0,*63
1504548454.05,6077,17.13,73636.3,-3.55,-19.31,-20.99,0,*6D
1504548455.28,6078,17.13,73644.3,-3.53,-19.41,-21.77,0,*62
1504548456.53,6079,17.13,73656.0,-3.55,-20.39,-22.21,0,*60
1504548457.79,6080,17.13,73664.3,-3.55,-19.61,-21.77,0,*61
1504548459.02,6081,17.13,73662.3,-3.53,-21.17,-22.77,0,*6F
1504548460.3,6082,17.13,73656.3,-3.55,-22.21,-20.83,0,*65
1504548461.53,6083,17.13,73648.5,-3.53,-20.99,-18.49,0,*6E
1504548462.76,6084,17.13,73654.8,-3.53,-17.49,-17.63,0,*67
1504548463.96,6085,17.13,73658.3,-3.53,-15.15,-17.31,0,*6A
1504548465.21,6086,17.13,73642.3,-3.53,-14.97,-17.59,0,*6C
1504548466.46,6087,17.13,73636.0,-3.51,-16.51,-18.21,0,*67
1504548467.66,6088,17.13,73632.8,-3.53,-16.03,-18.21,0,*6D
1504548468.94,6089,17.13,73650.3,-3.51,-16.51,-19.23,0,*6A
1504548470.16,6090,17.13,73658.3,-3.51,-16.89,-21.13,0,*6F
1504548471.41,6091,17.13,73650.0,-3.51,-19.75,-23.29,0,*69
1504548472.66,6092,17.13,73654.0,-3.51,-20.29,-23.85,0,*6F
1504548473.89,6093,17.13,73666.3,-3.53,-21.93,-23.19,0,*69
1504548475.12,6094,17.13,73660.5,-3.51,-21.63,-24.31,0,*6E
1504548476.35,6095,17.13,73656.5,-3.49,-24.11,-24.93,0,*6E
1504548477.63,6096,17.13,73664.0,-3.51,-23.49,-25.03,0,*66
1504548478.9,6097,17.13,73656.8,-3.51,-24.67,-24.83,0,*65
1504548480.13,6098,17.13,73654.0,-3.51,-25.39,-24.77,0,*6B
1504548481.39,6099,17.13,73646.8,-3.51,-24.83,-22.67,0,*6D
1504548482.64,6100,17.13,73642.0,-3.51,-22.21,-22.53,0,*65
1504548483.9,6101,17.13,73640.0,-3.51,-20.99,-22.07,0,*64
1504548485.11,6102,17.13,73630.0,-3.53,-22.93,-22.87,0,*65
1504548486.33,6103,17.13,73634.5,-3.53,-23.39,-23.49,0,*66
1504548487.59,6104,17.13,73632.0,-3.51,-22.83,-23.19,0,*66
1504548488.86,6105,17.13,73632.0,-3.51,-23.49,-23.99,0,*68
1504548490.11,6106,17.13,73636.5,-3.51,-23.59,-24.15,0,*69
1504548491.33,6107,17.13,73642.8,-3.51,-22.87,-23.79,0,*67
1504548492.59,6108,17.13,73644.0,-3.51,-22.97,-23.49,0,*6A
1504548493.87,6109,17.13,73650.0,-3.51,-22.21,-23.65,0,*68
1504548495.12,6110,17.13,73646.5,-3.51,-23.85,-24.97,0,*65
1504548496.32,6111,17.13,73648.3,-3.49,-23.59,-24.93,0,*68
1504548497.52,6112,17.13,73658.8,-3.49,-24.93,-25.61,0,*66
1504548498.75,6113,17.13,73660.3,-3.51,-26.45,-27.29,0,*69
1504548500.03,6114,17.13,73642.5,-3.51,-28.25,-28.75,0,*60
1504548501.28,6115,17.13,73636.0,-3.51,-26.61,-26.55,0,*63
1504548502.56,6116,17.13,73654.8,-3.51,-25.75,-25.81,0,*6C
1504548503.78,6117,17.13,73650.8,-3.51,-26.23,-26.07,0,*60
1504548505.0,6118,17.13,73638.3,-3.53,-26.03,-26.03,0,*6B